Voltar ao catálogo

DELTA 1 DEB *

AtivoLEO
NORAD 15789·DEBRIS·🇺🇸 United States

Lançado Nov 6, 1973 de Vandenberg Space Force Base

Loading…

Próximas Passagens (próximas 24 horas)

TLE

EnvelhecendoSource: Space-Track

Época: Sep 12, 2026, 04:28 UTC

1 15789U 73086GT  26255.18657618  .00006899  00000-0  34717-1 0  9991
2 15789 103.7229  16.0406 0383720 331.6261 146.4010 12.50478380657909

Acompanhe DELTA 1 DEB * em tempo real com AllMySat

Download on the App Store